sat.trackr.live / text

‹ back to catalog

STARLINK-36738

NORAD 67865 · 2026-034R

PAYLOAD ACTIVE UNKNOWN

§ Identity

Operator
Country
US
Launch date
2026-02-20
Launch site
AFETR
Launch vehicle
Mass (kg)
RCS (m²)

Purposes: comms

External: N2YO · Heavens-Above · Gunter

§ Orbital elements

Epoch: 2026-05-24T21:44:45.239424Z

Period
94.11 min
Inclination
53.1590°
Eccentricity
0.0001145
Mean motion
15.30204202 rev/d
Perigee alt
474.4 km
Apogee alt
476.0 km
Semi-major
6,853.3 km
B*
3.8419e-4
RAAN
210.3036°
Arg perigee
83.9392°
Mean anomaly
276.1739°
Rev number
1,570

§ Raw data

STARLINK-367381 67865U 26034R   26144.90607916  .00011038  00000+0  38419-3 0  99922 67865  53.1590 210.3036 0001145  83.9392 276.1739 15.30204202 15704

JSON: /api/v1/satellites/67865 · /tle

For live sub-satellite position, see the globe view (requires WebGL).

§ Visibility from observer

Set your observer location to see the next 7 days of passes ≥ 10°. The values pass through the URL so the page stays shareable.

No JS? Fill the form by hand. The geolocation button needs JavaScript.